• In Latvia
  • List of Countries
  • For 7 days
  • Water Temperature
  • Satellite Maps
  • Weather Map
  • Weather Widgets
  • user-avatar
    Login

    Hourly Weather Jelgava

    Today, 22 October, Sunday

    Time Temperature Precipitation Wind Pressure Humidity
    00:00 +1°C° 0 mm 2 mps 766 mmHg 86%
    01:00 +1°C° 0 mm 2 mps 766 mmHg 87%
    02:00 -1°C° 0 mm 2 mps 766 mmHg 89%
    03:00 -1°C° 0 mm 2 mps 766 mmHg 89%
    04:00 -1°C° 0 mm 2 mps 766 mmHg 90%
    05:00 -1°C° 0 mm 2 mps 766 mmHg 90%
    06:00 -1°C° 0 mm 2 mps 766 mmHg 89%
    07:00 -1°C° 0 mm 2 mps 766 mmHg 88%
    08:00 -1°C° 0 mm 2 mps 766 mmHg 87%
    09:00 +2°C° 0 mm 2 mps 765 mmHg 80%
    10:00 +3°C° 0 mm 2 mps 765 mmHg 73%
    11:00 +4°C° 0 mm 2 mps 765 mmHg 65%
    12:00 +5°C° 0 mm 2 mps 765 mmHg 62%
    13:00 +6°C° 0 mm 2 mps 765 mmHg 60%
    14:00 +6°C° 0 mm 2 mps 764 mmHg 57%
    15:00 +5°C° 0 mm 2 mps 764 mmHg 61%
    16:00 +4°C° 0 mm 2 mps 764 mmHg 66%
    17:00 +3°C° 0 mm 2 mps 763 mmHg 71%
    18:00 +3°C° 0 mm 2 mps 763 mmHg 73%
    19:00 +2°C° 0 mm 2 mps 763 mmHg 75%
    20:00 +1°C° 0 mm 2 mps 763 mmHg 76%
    21:00 +1°C° 0 mm 2 mps 763 mmHg 78%
    22:00 +1°C° 0 mm 2 mps 763 mmHg 79%
    23:00 +1°C° 0 mm 2 mps 763 mmHg 80%

    Tomorrow, 23 October, Monday

    Time Temperature Precipitation Wind Pressure Humidity
    00:00 0°C° 0 mm 3 mps 763 mmHg 80%
    01:00 0°C° 0 mm 3 mps 763 mmHg 80%
    02:00 0°C° 0 mm 3 mps 763 mmHg 80%
    03:00 0°C° 0 mm 3 mps 763 mmHg 79%
    04:00 0°C° 0 mm 3 mps 763 mmHg 78%
    05:00 0°C° 0 mm 3 mps 763 mmHg 78%
    06:00 0°C° 0 mm 3 mps 763 mmHg 77%
    07:00 0°C° 0 mm 3 mps 763 mmHg 76%
    08:00 0°C° 0 mm 3 mps 764 mmHg 75%
    09:00 0°C° 0 mm 4 mps 764 mmHg 72%
    10:00 +1°C° 0 mm 4 mps 764 mmHg 69%
    11:00 +3°C° 0 mm 4 mps 764 mmHg 65%
    12:00 +3°C° 0 mm 4 mps 764 mmHg 63%
    13:00 +4°C° 0 mm 4 mps 765 mmHg 61%
    14:00 +4°C° 0 mm 4 mps 765 mmHg 59%
    15:00 +4°C° 0 mm 4 mps 765 mmHg 62%
    16:00 +3°C° 0 mm 4 mps 765 mmHg 64%
    17:00 +2°C° 0 mm 3 mps 766 mmHg 67%
    18:00 +1°C° 0 mm 4 mps 766 mmHg 68%
    19:00 +1°C° 0 mm 4 mps 767 mmHg 70%
    20:00 0°C° 0 mm 4 mps 767 mmHg 72%
    21:00 0°C° 0 mm 4 mps 768 mmHg 74%
    22:00 -1°C° 0 mm 4 mps 768 mmHg 76%
    23:00 -1°C° 0 mm 4 mps 769 mmHg 79%

    Day after tomorrow, 24 October, Tuesday

    Time Temperature Precipitation Wind Pressure Humidity
    00:00 -1°C° 0 mm 4 mps 769 mmHg 80%
    01:00 -2°C° 0 mm 4 mps 769 mmHg 82%
    02:00 -2°C° 0 mm 4 mps 769 mmHg 84%
    03:00 -1°C° 0 mm 3 mps 770 mmHg 85%
    04:00 -1°C° 0 mm 3 mps 770 mmHg 85%
    05:00 -1°C° 0 mm 3 mps 770 mmHg 86%
    06:00 -1°C° 0 mm 3 mps 770 mmHg 86%
    07:00 -1°C° 0 mm 3 mps 771 mmHg 86%
    08:00 -1°C° 0 mm 3 mps 771 mmHg 85%
    09:00 0°C° 0 mm 3 mps 771 mmHg 79%
    10:00 +1°C° 0 mm 3 mps 771 mmHg 73%
    11:00 +1°C° 0 mm 4 mps 772 mmHg 67%
    12:00 +3°C° 0 mm 3 mps 772 mmHg 64%
    13:00 +3°C° 0 mm 3 mps 772 mmHg 62%
    14:00 +4°C° 0 mm 3 mps 772 mmHg 60%
    15:00 +3°C° 0 mm 3 mps 772 mmHg 65%
    16:00 +2°C° 0 mm 3 mps 772 mmHg 70%
    17:00 +2°C° 0 mm 2 mps 772 mmHg 75%
    18:00 +1°C° 0 mm 3 mps 772 mmHg 76%
    19:00 0°C° 0 mm 3 mps 772 mmHg 78%
    20:00 0°C° 0 mm 3 mps 772 mmHg 80%
    21:00 -1°C° 0 mm 3 mps 772 mmHg 81%
    22:00 -1°C° 0 mm 3 mps 772 mmHg 82%
    23:00 -1°C° 0 mm 3 mps 772 mmHg 82%

    25 October, Wednesday

    Time Temperature Precipitation Wind Pressure Humidity
    00:00 -1°C° 0 mm 3 mps 772 mmHg 83%
    01:00 -1°C° 0 mm 3 mps 772 mmHg 83%
    02:00 -1°C° 0 mm 3 mps 772 mmHg 83%
    03:00 -1°C° 0 mm 3 mps 772 mmHg 83%
    04:00 -2°C° 0 mm 4 mps 771 mmHg 82%
    05:00 -2°C° 0 mm 4 mps 771 mmHg 82%
    06:00 -2°C° 0 mm 4 mps 771 mmHg 81%
    07:00 -2°C° 0 mm 4 mps 770 mmHg 80%
    08:00 -2°C° 0 mm 5 mps 770 mmHg 79%
    09:00 0°C° 0 mm 5 mps 770 mmHg 74%
    10:00 +1°C° 0 mm 5 mps 770 mmHg 69%
    11:00 +2°C° 0 mm 6 mps 770 mmHg 64%
    12:00 +2°C° 0 mm 6 mps 769 mmHg 63%
    13:00 +3°C° 0 mm 6 mps 768 mmHg 61%
    14:00 +4°C° 0 mm 6 mps 768 mmHg 59%
    15:00 +3°C° 0.1 mm 6 mps 767 mmHg 62%
    16:00 +3°C° 0.1 mm 6 mps 766 mmHg 64%
    17:00 +3°C° 0.1 mm 6 mps 765 mmHg 67%
    18:00 +3°C° 0.6 mm 7 mps 764 mmHg 70%
    19:00 +3°C° 0.6 mm 7 mps 763 mmHg 72%
    20:00 +1°C° 0.6 mm 8 mps 762 mmHg 75%
    21:00 +1°C° 2.6 mm 8 mps 761 mmHg 79%
    22:00 +1°C° 2.6 mm 8 mps 760 mmHg 83%
    23:00 +1°C° 2.6 mm 8 mps 759 mmHg 87%

    26 October, Thursday

    Time Temperature Precipitation Wind Pressure Humidity
    00:00 +2°C° 1.7 mm 8 mps 758 mmHg 89%
    01:00 +2°C° 1.7 mm 8 mps 757 mmHg 90%
    02:00 +4°C° 1.7 mm 8 mps 755 mmHg 91%
    03:00 +4°C° 0.5 mm 7 mps 755 mmHg 92%
    04:00 +5°C° 0.5 mm 6 mps 754 mmHg 92%
    05:00 +7°C° 0.5 mm 6 mps 754 mmHg 92%
    06:00 +7°C° 0.3 mm 5 mps 754 mmHg 91%
    07:00 +7°C° 0.3 mm 5 mps 754 mmHg 90%
    08:00 +7°C° 0.3 mm 5 mps 754 mmHg 88%
    09:00 +8°C° 0 mm 5 mps 754 mmHg 86%
    10:00 +8°C° 0 mm 6 mps 754 mmHg 83%
    11:00 +9°C° 0 mm 6 mps 754 mmHg 80%
    12:00 +9°C° 0 mm 6 mps 754 mmHg 80%
    13:00 +9°C° 0 mm 6 mps 754 mmHg 80%
    14:00 +9°C° 0 mm 5 mps 754 mmHg 80%
    15:00 +8°C° 0.1 mm 6 mps 754 mmHg 81%
    16:00 +8°C° 0.1 mm 6 mps 754 mmHg 82%
    17:00 +8°C° 0.1 mm 6 mps 754 mmHg 83%
    18:00 +8°C° 0.1 mm 6 mps 754 mmHg 83%
    19:00 +7°C° 0.1 mm 5 mps 754 mmHg 83%
    20:00 +7°C° 0.1 mm 5 mps 754 mmHg 84%
    21:00 +7°C° 0.1 mm 5 mps 754 mmHg 84%
    22:00 +6°C° 0.1 mm 5 mps 754 mmHg 85%
    23:00 +6°C° 0.1 mm 5 mps 754 mmHg 86%

    27 October, Friday

    Time Temperature Precipitation Wind Pressure Humidity
    00:00 +6°C° 0 mm 5 mps 753 mmHg 86%
    01:00 +5°C° 0 mm 5 mps 753 mmHg 87%
    02:00 +5°C° 0 mm 4 mps 753 mmHg 87%
    03:00 +5°C° 0 mm 4 mps 753 mmHg 88%
    04:00 +5°C° 0 mm 4 mps 753 mmHg 89%
    05:00 +4°C° 0 mm 4 mps 753 mmHg 89%
    06:00 +4°C° 0 mm 4 mps 752 mmHg 90%
    07:00 +4°C° 0 mm 3 mps 752 mmHg 91%
    08:00 +4°C° 0 mm 3 mps 752 mmHg 91%
    09:00 +5°C° 0 mm 3 mps 752 mmHg 89%
    10:00 +6°C° 0 mm 2 mps 752 mmHg 86%
    11:00 +7°C° 0 mm 2 mps 751 mmHg 84%
    12:00 +7°C° 0 mm 2 mps 751 mmHg 83%
    13:00 +9°C° 0 mm 1 mps 750 mmHg 82%
    14:00 +9°C° 0 mm 1 mps 750 mmHg 81%
    15:00 +8°C° 0.2 mm 1 mps 750 mmHg 83%
    16:00 +8°C° 0.2 mm 1 mps 749 mmHg 86%
    17:00 +8°C° 0.2 mm 1 mps 749 mmHg 89%
    18:00 +6°C° 0.4 mm 2 mps 748 mmHg 89%
    19:00 +6°C° 0.4 mm 2 mps 748 mmHg 89%
    20:00 +6°C° 0.4 mm 2 mps 748 mmHg 89%
    21:00 +5°C° 0 mm 2 mps 748 mmHg 88%
    22:00 +5°C° 0 mm 2 mps 748 mmHg 87%
    23:00 +5°C° 0 mm 2 mps 748 mmHg 86%
    Show more